Weather History for KBZN - June, 2014

Change the Weather History Date:

Tuesday, June 10, 2014

  Actual Average Record
Temperature  
Mean Temperature 61 °F 60 °F  
Max Temperature 75 °F 75 °F 92 °F (1956)
Min Temperature 47 °F 45 °F 33 °F (1999)
Degree Days  
Heating Degree Days 4 6  
Month to date heating degree days 77 67  
Since 1 June heating degree days 77 67  
Since 1 July heating degree days 8138 7484  
Cooling Degree Days 0 1  
Month to date cooling degree days 0 6  
Year to date cooling degree days 0 10  
Since 1 June cooling degree days 0 6  
Growing Degree Days 12 (Base 50)    
Moisture  
Dew Point 40 °F    
Average Humidity 51    
Maximum Humidity 74    
Minimum Humidity 27    
Precipitation  
Precipitation 0.10 in 0.09 in 1.31 in (2004)
Month to date precipitation 1.22 0.97  
Year to date precipitation 6.14 6.87  
Snow  
Snow 0.00 in 0.10 in T in (1989)
Month to date snowfall 0.0 0.3  
Since 1 June snowfall 0.0 0.3  
Since 1 July snowfall 32.3 40.2  
Snow Depth 0.00 in    
Sea Level Pressure  
Sea Level Pressure 29.80 in    
Wind  
Wind Speed 7 mph (NW)    
Max Wind Speed 26 mph    
Max Gust Speed 35 mph    
Visibility 10 miles    
Events Rain    
T = Trace of Precipitation, MM = Missing Value Source: NWS Daily Summary

Daily Weather History Graph

Daily Weather History Graph

Search for Another Location

Airport or City:

Trip Planner

Search our weather history database for the weather conditions in past years. The results will help you decide how hot, cold, wet, or windy it might be!

Date:

Astronomy

Jun. 10, 2014 Rise Set
Actual Time 5:34 AM MDT 9:13 PM MDT
Civil Twilight 4:56 AM MDT 9:51 PM MDT
Nautical Twilight 4:05 AM MDT 10:42 PM MDT
Astronomical Twilight 2:57 AM MDT 11:51 PM MDT
Moon 6:35 PM MDT (6/10) 3:51 AM MDT (6/10)
Length of Visible Light 16h 55m
Length of Day
15h 39m
Waxing Gibbous, 92% of the Moon is Illuminated
Jun 10
Waxing Gibbous
Jun 12
Full
Jun 19
Last Quarter
Jun 27
New
Jul 5
First Quarter

Hourly Weather History & Observations

Time (MDT) Temp. Dew Point Humidity Pressure Visibility Wind Dir Wind Speed Gust Speed Precip Events Conditions
12:56 AM 59.0 °F 37.9 °F 46% 29.81 in 10.0 mi NNW 8.1 mph - N/A   Overcast
1:56 AM 57.0 °F 39.9 °F 53% 29.81 in 10.0 mi SE 8.1 mph - N/A   Overcast
2:56 AM 55.4 °F 42.8 °F 63% 29.92 in 10.0 mi Calm Calm - N/A   Overcast
3:56 AM 53.1 °F 44.1 °F 71% 29.83 in 10.0 mi South 5.8 mph - N/A   Overcast
4:56 AM 54.0 °F 41.0 °F 62% 29.84 in 10.0 mi South 3.5 mph - N/A   Mostly Cloudy
5:56 AM 50.0 °F 42.1 °F 74% 29.84 in 10.0 mi SSE 5.8 mph - N/A   Mostly Cloudy
6:56 AM 50.0 °F 42.1 °F 74% 29.85 in 10.0 mi SSE 5.8 mph - N/A   Scattered Clouds
7:56 AM 54.0 °F 44.1 °F 69% 29.85 in 10.0 mi East 3.5 mph - N/A   Partly Cloudy
8:56 AM 59.0 °F 44.1 °F 58% 29.83 in 10.0 mi Calm Calm - N/A   Mostly Cloudy
9:56 AM 62.1 °F 41.0 °F 46% 29.81 in 10.0 mi Calm Calm - N/A   Mostly Cloudy
10:56 AM 66.0 °F 37.0 °F 34% 29.79 in 10.0 mi WNW 4.6 mph - N/A   Scattered Clouds
11:56 AM 66.2 °F 42.8 °F 43% 29.87 in 10.0 mi NW 8.1 mph - N/A   Mostly Cloudy
12:56 PM 69.1 °F 39.0 °F 33% 29.76 in 10.0 mi North 4.6 mph - N/A   Clear
1:56 PM 71.1 °F 37.0 °F 29% 29.75 in 10.0 mi NW 9.2 mph - N/A   Clear
2:56 PM 71.1 °F 36.0 °F 28% 29.73 in 10.0 mi West 4.6 mph - N/A   Clear
3:56 PM 73.0 °F 37.0 °F 27% 29.72 in 10.0 mi Variable 6.9 mph - N/A   Clear
4:56 PM 70.0 °F 41.0 °F 35% 29.72 in 10.0 mi NW 5.8 mph - N/A   Mostly Cloudy
5:56 PM 69.1 °F 39.9 °F 35% 29.71 in 10.0 mi NW 5.8 mph - N/A   Partly Cloudy
6:56 PM 69.1 °F 41.0 °F 36% 29.72 in 10.0 mi Variable 5.8 mph - N/A   Overcast
7:56 PM 64.0 °F 36.0 °F 35% 29.73 in 10.0 mi North 9.2 mph - N/A   Overcast
8:56 PM 64.0 °F 33.1 °F 31% 29.77 in 10.0 mi North 18.4 mph 33.4 mph 0.00 in Rain Light Rain
10:56 PM 54.0 °F 44.1 °F 69% 29.90 in 10.0 mi NW 5.8 mph - 0.02 in Rain Light Rain
11:56 PM 51.1 °F 43.0 °F 74% 29.94 in 7.0 mi NNW 3.5 mph - 0.05 in Rain Light Rain